SWA6092 KSMF-KLGB

Flight info

Callsign SWA6092
Flight time 1h 2m
Altitude 35000
Route FTHIL3 FRA REBRG
Aircraft B738/M-SDE2E3FGHIRWXY/LB1

Departure

Time 2026-05-05 21:44
Airport Sacramento International Airport (KSMF)

Arrival

Time 2026-05-05 22:46
Airport Long Beach International Airport (KLGB)
Time Latitude Longitude Altitude Speed Heading
2026-05-05 21:13 38.69631 -121.59515 34 ft 0 kts 156°
2026-05-05 21:37 38.69634 -121.59517 33 ft 3 kts 157°
2026-05-05 21:37 38.69657 -121.59527 32 ft 4 kts 166°
2026-05-05 21:37 38.69682 -121.59529 34 ft 4 kts 200°
2026-05-05 21:38 38.69699 -121.59512 31 ft 4 kts 263°
2026-05-05 21:38 38.69700 -121.59500 34 ft 1 kts 271°
2026-05-05 21:40 38.69700 -121.59525 34 ft 6 kts 270°
2026-05-05 21:40 38.69701 -121.59611 33 ft 12 kts 271°
2026-05-05 21:40 38.69702 -121.59734 33 ft 15 kts 271°
2026-05-05 21:41 38.69733 -121.59853 32 ft 15 kts 338°
2026-05-05 21:41 38.69841 -121.59862 32 ft 16 kts
2026-05-05 21:41 38.69949 -121.59861 33 ft 15 kts 360°
2026-05-05 21:41 38.70053 -121.59859 34 ft 15 kts
2026-05-05 21:42 38.70164 -121.59857 33 ft 18 kts
2026-05-05 21:42 38.70302 -121.59855 34 ft 21 kts 360°
2026-05-05 21:42 38.70462 -121.59853 35 ft 25 kts
2026-05-05 21:42 38.70647 -121.59850 34 ft 28 kts
2026-05-05 21:43 38.70726 -121.60029 32 ft 28 kts 262°
2026-05-05 21:43 38.70572 -121.60113 36 ft 27 kts 181°
2026-05-05 21:43 38.70138 -121.60123 37 ft 106 kts 181°
2026-05-05 21:43 38.69121 -121.60140 91 ft 179 kts 180°
2026-05-05 21:44 38.67825 -121.60112 1028 ft 193 kts 175°
2026-05-05 21:44 38.66467 -121.59487 1588 ft 227 kts 149°
2026-05-05 21:44 38.65157 -121.58168 2074 ft 250 kts 133°
2026-05-05 21:44 38.64075 -121.56332 2722 ft 265 kts 124°
2026-05-05 21:45 38.63067 -121.54328 3690 ft 268 kts 121°
2026-05-05 21:45 38.62077 -121.52305 4738 ft 270 kts 121°
2026-05-05 21:45 38.61078 -121.50260 5711 ft 272 kts 120°
2026-05-05 21:45 38.60069 -121.48205 6707 ft 274 kts 120°
2026-05-05 21:46 38.59043 -121.46130 7554 ft 279 kts 120°
2026-05-05 21:46 38.57991 -121.44014 8398 ft 284 kts 120°
2026-05-05 21:46 38.56920 -121.41867 9276 ft 289 kts 119°
2026-05-05 21:46 38.55829 -121.39688 10140 ft 293 kts 119°
2026-05-05 21:47 38.54702 -121.37438 10591 ft 313 kts 119°
2026-05-05 21:47 38.53477 -121.34990 10780 ft 340 kts 119°
2026-05-05 21:47 38.52161 -121.32370 11115 ft 358 kts 119°
2026-05-05 21:47 38.50794 -121.29664 11792 ft 365 kts 119°
2026-05-05 21:48 38.49410 -121.26933 12608 ft 368 kts 119°
2026-05-05 21:48 38.48014 -121.24183 13441 ft 371 kts 120°
2026-05-05 21:48 38.46630 -121.21457 14257 ft 372 kts 119°
2026-05-05 21:48 38.45218 -121.18675 14958 ft 376 kts 119°
2026-05-05 21:49 38.43788 -121.15860 15673 ft 380 kts 119°
2026-05-05 21:49 38.42344 -121.13018 16387 ft 383 kts 119°
2026-05-05 21:49 38.40887 -121.10154 17095 ft 386 kts 119°
2026-05-05 21:49 38.39418 -121.07266 17805 ft 390 kts 118°
2026-05-05 21:50 38.37937 -121.04358 18469 ft 393 kts 118°
2026-05-05 21:50 38.36439 -121.01419 19065 ft 396 kts 118°
2026-05-05 21:50 38.34930 -120.98464 19712 ft 398 kts 118°
2026-05-05 21:50 38.33417 -120.95500 20332 ft 401 kts 118°
2026-05-05 21:51 38.31889 -120.92511 20941 ft 404 kts 118°
2026-05-05 21:51 38.30352 -120.89509 21534 ft 406 kts 118°
2026-05-05 21:51 38.28804 -120.86485 22107 ft 409 kts 118°
2026-05-05 21:51 38.27242 -120.83438 22649 ft 412 kts 118°
2026-05-05 21:52 38.24107 -120.77330 23722 ft 418 kts 118°
2026-05-05 21:52 38.22510 -120.74223 24169 ft 420 kts 117°
2026-05-05 21:52 38.20907 -120.71110 24646 ft 421 kts 117°
2026-05-05 21:53 38.19301 -120.67993 25127 ft 423 kts 117°
2026-05-05 21:53 38.17683 -120.64853 25579 ft 425 kts 117°
2026-05-05 21:53 38.16057 -120.61701 26034 ft 427 kts 116°
2026-05-05 21:53 38.14428 -120.58547 26507 ft 427 kts 116°
2026-05-05 21:54 38.12795 -120.55389 26945 ft 429 kts 116°
2026-05-05 21:54 38.11149 -120.52208 27352 ft 431 kts 116°
2026-05-05 21:54 38.09500 -120.49022 27740 ft 433 kts 116°
2026-05-05 21:54 38.07845 -120.45830 28135 ft 434 kts 116°
2026-05-05 21:55 38.06177 -120.42616 28532 ft 436 kts 115°
2026-05-05 21:55 38.04469 -120.39418 28872 ft 439 kts 117°
2026-05-05 21:55 38.02716 -120.36269 29187 ft 443 kts 117°
2026-05-05 21:55 38.00929 -120.33109 29774 ft 440 kts 117°
2026-05-05 21:56 37.99154 -120.29957 30342 ft 436 kts 117°
2026-05-05 21:56 37.97406 -120.26830 30742 ft 435 kts 116°
2026-05-05 21:56 37.95655 -120.23697 31065 ft 437 kts 118°
2026-05-05 21:56 37.93537 -120.20843 31353 ft 457 kts 133°
2026-05-05 21:57 37.90853 -120.18606 31738 ft 465 kts 140°
2026-05-05 21:57 37.88048 -120.16554 32178 ft 465 kts 141°
2026-05-05 21:57 37.85241 -120.14546 32717 ft 461 kts 141°
2026-05-05 21:57 37.83388 -120.13220 32999 ft 460 kts 141°
2026-05-05 21:58 37.80610 -120.11210 33263 ft 461 kts 141°
2026-05-05 21:58 37.77819 -120.09164 33422 ft 465 kts 140°
2026-05-05 21:58 37.75023 -120.07096 33730 ft 465 kts 140°
2026-05-05 21:58 37.72241 -120.05033 34155 ft 463 kts 140°
2026-05-05 21:59 37.69472 -120.02979 34576 ft 460 kts 140°
2026-05-05 21:59 37.66715 -120.00934 34916 ft 458 kts 140°
2026-05-05 21:59 37.63963 -119.98889 35050 ft 461 kts 140°
2026-05-05 22:00 37.58395 -119.94754 35065 ft 466 kts 141°
2026-05-05 22:00 37.52864 -119.90670 35062 ft 460 kts 141°
2026-05-05 22:01 37.47344 -119.86600 35049 ft 459 kts 141°
2026-05-05 22:01 37.41836 -119.82538 35034 ft 458 kts 141°
2026-05-05 22:02 37.36336 -119.78491 35065 ft 458 kts 141°
2026-05-05 22:02 37.30822 -119.74439 35047 ft 459 kts 141°
2026-05-05 22:03 37.25302 -119.70393 35035 ft 460 kts 141°
2026-05-05 22:03 37.19812 -119.66375 35040 ft 460 kts 141°
2026-05-05 22:04 37.14281 -119.62333 35045 ft 460 kts 141°
2026-05-05 22:04 37.08233 -119.59403 35042 ft 488 kts 169°
2026-05-05 22:05 37.01356 -119.59429 35041 ft 496 kts 175°
2026-05-05 22:05 36.94434 -119.59709 35049 ft 497 kts 175°
2026-05-05 22:06 36.87515 -119.59915 35037 ft 497 kts 175°
2026-05-05 22:06 36.80604 -119.60051 35046 ft 496 kts 174°
2026-05-05 22:07 36.73745 -119.60167 35039 ft 496 kts 174°
2026-05-05 22:07 36.66839 -119.60285 35046 ft 496 kts 174°
2026-05-05 22:08 36.59947 -119.60407 35038 ft 495 kts 174°
2026-05-05 22:08 36.53052 -119.60530 35054 ft 495 kts 175°
2026-05-05 22:09 36.46171 -119.60653 35052 ft 495 kts 175°
2026-05-05 22:09 36.39292 -119.60775 35055 ft 494 kts 175°
2026-05-05 22:10 36.32425 -119.60896 35066 ft 494 kts 175°
2026-05-05 22:10 36.25598 -119.61017 35056 ft 494 kts 175°
2026-05-05 22:11 36.18728 -119.61138 35053 ft 493 kts 175°
2026-05-05 22:11 36.11859 -119.61259 35064 ft 493 kts 176°
2026-05-05 22:12 36.04990 -119.61379 35046 ft 493 kts 176°
2026-05-05 22:12 35.98123 -119.61507 35033 ft 494 kts 177°
2026-05-05 22:13 35.91267 -119.62588 35048 ft 499 kts 187°
2026-05-05 22:13 35.84448 -119.64207 35036 ft 499 kts 187°
2026-05-05 22:14 35.77615 -119.65676 35037 ft 498 kts 185°
2026-05-05 22:14 35.70780 -119.67045 35035 ft 497 kts 185°
2026-05-05 22:15 35.64000 -119.67027 35049 ft 481 kts 159°
2026-05-05 22:15 35.57967 -119.63907 35044 ft 472 kts 149°
2026-05-05 22:16 35.52009 -119.60484 35031 ft 473 kts 149°
2026-05-05 22:16 35.46027 -119.57113 35033 ft 473 kts 151°
2026-05-05 22:17 35.40016 -119.53789 35065 ft 474 kts 152°
2026-05-05 22:17 35.33986 -119.50475 35042 ft 475 kts 152°
2026-05-05 22:18 35.27945 -119.47163 35028 ft 476 kts 153°
2026-05-05 22:18 35.21888 -119.43844 35030 ft 477 kts 153°
2026-05-05 22:19 35.15827 -119.40528 35041 ft 477 kts 153°
2026-05-05 22:19 35.09811 -119.37240 35037 ft 477 kts 154°
2026-05-05 22:20 35.03748 -119.33934 35030 ft 478 kts 154°
2026-05-05 22:20 34.97669 -119.30622 35025 ft 478 kts 154°
2026-05-05 22:21 34.91572 -119.27305 34527 ft 484 kts 154°
2026-05-05 22:21 34.88498 -119.25635 33931 ft 484 kts 154°
2026-05-05 22:21 34.85419 -119.23965 33214 ft 484 kts 154°
2026-05-05 22:21 34.82339 -119.22295 32483 ft 485 kts 153°
2026-05-05 22:22 34.79256 -119.20624 31777 ft 485 kts 153°
2026-05-05 22:22 34.76196 -119.18968 31295 ft 480 kts 153°
2026-05-05 22:22 34.73161 -119.17320 30774 ft 475 kts 151°
2026-05-05 22:22 34.70220 -119.15548 30283 ft 469 kts 148°
2026-05-05 22:23 34.67354 -119.13690 29715 ft 464 kts 147°
2026-05-05 22:23 34.64533 -119.11831 29171 ft 460 kts 148°
2026-05-05 22:23 34.61753 -119.10028 28676 ft 454 kts 148°
2026-05-05 22:23 34.58968 -119.08252 28160 ft 449 kts 149°
2026-05-05 22:24 34.56212 -119.06502 27662 ft 445 kts 149°
2026-05-05 22:24 34.53494 -119.04749 27152 ft 441 kts 149°
2026-05-05 22:24 34.50794 -119.02997 26621 ft 438 kts 149°
2026-05-05 22:24 34.48124 -119.01265 26187 ft 434 kts 149°
2026-05-05 22:25 34.45463 -118.99540 25682 ft 432 kts 149°
2026-05-05 22:25 34.42825 -118.97815 25191 ft 430 kts 148°
2026-05-05 22:25 34.40256 -118.95985 24717 ft 428 kts 149°
2026-05-05 22:25 34.37642 -118.94260 24242 ft 427 kts 150°
2026-05-05 22:26 34.35023 -118.92568 23763 ft 425 kts 150°
2026-05-05 22:26 34.32426 -118.90881 23193 ft 423 kts 150°
2026-05-05 22:26 34.29842 -118.89183 22672 ft 420 kts 150°
2026-05-05 22:26 34.27295 -118.87499 22187 ft 415 kts 150°
2026-05-05 22:27 34.24773 -118.85829 21722 ft 411 kts 150°
2026-05-05 22:27 34.22288 -118.84245 21244 ft 407 kts 155°
2026-05-05 22:27 34.19643 -118.83052 20797 ft 403 kts 162°
2026-05-05 22:27 34.16935 -118.82070 20335 ft 400 kts 164°
2026-05-05 22:28 34.14280 -118.81127 19891 ft 396 kts 163°
2026-05-05 22:28 34.11683 -118.80150 19447 ft 393 kts 163°
2026-05-05 22:28 34.09093 -118.79136 19009 ft 390 kts 162°
2026-05-05 22:28 34.06520 -118.78117 18571 ft 387 kts 162°
2026-05-05 22:29 34.03964 -118.77121 18120 ft 384 kts 163°
2026-05-05 22:29 34.01434 -118.76143 17644 ft 380 kts 163°
2026-05-05 22:29 33.98947 -118.75182 17197 ft 376 kts 163°
2026-05-05 22:29 33.96464 -118.74222 16741 ft 374 kts 163°
2026-05-05 22:30 33.93996 -118.73268 16313 ft 371 kts 163°
2026-05-05 22:30 33.91551 -118.72322 15892 ft 367 kts 163°
2026-05-05 22:30 33.89126 -118.71386 15480 ft 365 kts 163°
2026-05-05 22:30 33.86749 -118.70468 15076 ft 362 kts 163°
2026-05-05 22:31 33.84358 -118.69546 14671 ft 360 kts 163°
2026-05-05 22:31 33.81985 -118.68630 14268 ft 358 kts 163°
2026-05-05 22:31 33.79618 -118.67719 13867 ft 356 kts 163°
2026-05-05 22:31 33.77263 -118.66812 13423 ft 354 kts 163°
2026-05-05 22:32 33.74924 -118.65918 12988 ft 352 kts 165°
2026-05-05 22:32 33.72543 -118.65355 12625 ft 346 kts 175°
2026-05-05 22:32 33.70158 -118.65110 12291 ft 344 kts 177°
2026-05-05 22:32 33.67769 -118.64884 11957 ft 344 kts 176°
2026-05-05 22:33 33.65389 -118.64617 11608 ft 344 kts 175°
2026-05-05 22:33 33.63012 -118.64324 11264 ft 342 kts 174°
2026-05-05 22:33 33.60737 -118.63588 10891 ft 339 kts 151°
2026-05-05 22:33 33.58922 -118.61855 10596 ft 332 kts 129°
2026-05-05 22:34 33.57689 -118.59562 10277 ft 325 kts 116°
2026-05-05 22:34 33.56683 -118.57183 9962 ft 322 kts 115°
2026-05-05 22:34 33.55693 -118.54806 9955 ft 307 kts 113°
2026-05-05 22:34 33.54746 -118.52567 9927 ft 295 kts 114°
2026-05-05 22:35 33.53842 -118.50458 9785 ft 282 kts 115°
2026-05-05 22:35 33.52948 -118.48386 9432 ft 278 kts 115°
2026-05-05 22:35 33.52174 -118.46274 8968 ft 275 kts 98°
2026-05-05 22:35 33.52066 -118.44014 8634 ft 269 kts 89°
2026-05-05 22:36 33.52035 -118.41756 8266 ft 272 kts 89°
2026-05-05 22:36 33.51983 -118.39517 7953 ft 264 kts 90°
2026-05-05 22:36 33.51929 -118.37355 7596 ft 255 kts 90°
2026-05-05 22:36 33.51888 -118.35269 7257 ft 246 kts 86°
2026-05-05 22:37 33.52382 -118.33365 6885 ft 239 kts 54°
2026-05-05 22:37 33.53547 -118.32019 6571 ft 236 kts 33°
2026-05-05 22:37 33.54964 -118.31033 6217 ft 235 kts 28°
2026-05-05 22:37 33.56414 -118.30107 5852 ft 236 kts 28°
2026-05-05 22:38 33.57859 -118.29177 5494 ft 236 kts 28°
2026-05-05 22:38 33.59315 -118.28240 5137 ft 237 kts 26°
2026-05-05 22:38 33.60816 -118.27434 4804 ft 236 kts 22°
2026-05-05 22:38 33.62331 -118.26674 4425 ft 236 kts 22°
2026-05-05 22:39 33.63845 -118.25910 4064 ft 237 kts 21°
2026-05-05 22:39 33.65365 -118.25132 3718 ft 238 kts 22°
2026-05-05 22:39 33.66886 -118.24348 3357 ft 239 kts 21°
2026-05-05 22:39 33.68413 -118.23559 3043 ft 237 kts 22°
2026-05-05 22:40 33.69888 -118.22792 2996 ft 225 kts 18°
2026-05-05 22:40 33.71356 -118.22453 2984 ft 208 kts 346°
2026-05-05 22:40 33.72756 -118.22869 2985 ft 208 kts 342°
2026-05-05 22:40 33.74158 -118.23296 2990 ft 205 kts 340°
2026-05-05 22:41 33.75496 -118.23703 2893 ft 193 kts 343°
2026-05-05 22:41 33.76762 -118.24102 2688 ft 184 kts 341°
2026-05-05 22:41 33.77964 -118.24504 2410 ft 175 kts 339°
2026-05-05 22:41 33.79127 -118.24897 2169 ft 175 kts 338°
2026-05-05 22:42 33.80297 -118.25292 1938 ft 172 kts 338°
2026-05-05 22:42 33.81406 -118.25666 1737 ft 162 kts 337°
2026-05-05 22:42 33.82520 -118.25958 1512 ft 164 kts 352°
2026-05-05 22:42 33.83645 -118.25776 1383 ft 163 kts 17°
2026-05-05 22:43 33.84671 -118.25089 1268 ft 174 kts 37°
2026-05-05 22:43 33.85474 -118.23994 1167 ft 172 kts 59°
2026-05-05 22:43 33.85914 -118.22705 1126 ft 164 kts 78°
2026-05-05 22:43 33.85960 -118.21333 1084 ft 164 kts 101°
2026-05-05 22:44 33.85637 -118.20067 1018 ft 155 kts 121°
2026-05-05 22:44 33.85042 -118.19009 893 ft 152 kts 137°
2026-05-05 22:44 33.84329 -118.18161 657 ft 139 kts 143°
2026-05-05 22:44 33.83638 -118.17384 435 ft 138 kts 139°
2026-05-05 22:45 33.82954 -118.16551 294 ft 140 kts 140°
2026-05-05 22:45 33.82253 -118.15699 71 ft 143 kts 140°
2026-05-05 22:45 33.81813 -118.15169 49 ft 124 kts 139°
2026-05-05 22:45 33.81308 -118.14563 51 ft 80 kts 134°
2026-05-05 22:46 33.81037 -118.14237 46 ft 34 kts 134°
2026-05-05 22:46 33.80874 -118.14043 42 ft 32 kts 135°
2026-05-05 22:46 33.80786 -118.13921 34 ft 22 kts 100°
2026-05-05 22:46 33.80879 -118.13863 38 ft 18 kts 314°
2026-05-05 22:47 33.80969 -118.13970 45 ft 18 kts 314°
2026-05-05 22:47 33.81056 -118.14074 47 ft 17 kts 314°
2026-05-05 22:47 33.81143 -118.14175 51 ft 17 kts 319°
2026-05-05 22:47 33.81233 -118.14288 53 ft 20 kts 314°
2026-05-05 22:48 33.81335 -118.14412 58 ft 21 kts 315°
2026-05-05 22:48 33.81452 -118.14556 52 ft 27 kts 314°
2026-05-05 22:48 33.81590 -118.14690 52 ft 23 kts 346°
2026-05-05 22:48 33.81763 -118.14700 51 ft 27 kts 360°
2026-05-05 22:49 33.81894 -118.14682 55 ft 12 kts 59°
2026-05-05 22:49 33.81899 -118.14607 52 ft 4 kts 91°
2026-05-05 22:49 33.81899 -118.14601 52 ft 0 kts 91°